sat.trackr.live / text

‹ back to catalog

STARLINK-37000

NORAD 68063 · 2026-041Z

PAYLOAD ACTIVE UNKNOWN

§ Identity

Operator
Country
US
Launch date
2026-03-02
Launch site
AFETR
Launch vehicle
Mass (kg)
RCS (m²)

Purposes: comms

External: N2YO · Heavens-Above · Gunter

§ Orbital elements

Epoch: 2026-09-19T10:50:50.214048Z

Period
93.85 min
Inclination
53.1563°
Eccentricity
0.0001218
Mean motion
15.34401845 rev/d
Perigee alt
461.9 km
Apogee alt
463.5 km
Semi-major
6,840.8 km
B*
5.0198e-4
RAAN
224.9422°
Arg perigee
90.6106°
Mean anomaly
269.5036°
Rev number
3,112

§ Raw data

STARLINK-370001 68063U 26041Z   26262.45197007  .00016623  00000+0  50198-3 0  99902 68063  53.1563 224.9422 0001218  90.6106 269.5036 15.34401845 31120

JSON: /api/v1/satellites/68063 · /tle

For live sub-satellite position, see the globe view (requires WebGL).

§ Visibility from observer

Set your observer location to see the next 7 days of passes ≥ 10°. The values pass through the URL so the page stays shareable.

No JS? Fill the form by hand. The geolocation button needs JavaScript.